TimeCDT,TemperatureF,Dew PointF,Humidity,Sea Level PressureIn,VisibilityMPH,Wind Direction,Wind SpeedMPH,Gust SpeedMPH,PrecipitationIn,Events,Conditions,WindDirDegrees,DateUTC
12:15 AM,73.4,72.3,96,29.74,10.0,SSE,4.6,-,N/A,Thunderstorm,Clear,160,2013-06-25 05:15:00
12:35 AM,72.9,72.1,98,29.77,10.0,SSW,5.8,-,N/A,Thunderstorm,Thunderstorm,200,2013-06-25 05:35:00
12:55 AM,73.4,72.5,97,29.77,10.0,Calm,Calm,-,N/A,Thunderstorm,Mostly Cloudy,0,2013-06-25 05:55:00
1:15 AM,77.4,57.2,50,29.74,10.0,SSW,28.8,41.4,N/A,Thunderstorm,Scattered Clouds,200,2013-06-25 06:15:00
1:35 AM,83.7,50.2,31,29.78,10.0,SSW,26.5,43.7,N/A,Rain-Thunderstorm,Light Thunderstorms and Rain,210,2013-06-25 06:35:00
1:55 AM,78.4,52.7,41,29.73,10.0,ESE,21.9,29.9,N/A,Rain-Thunderstorm,Light Thunderstorms and Rain,110,2013-06-25 06:55:00
2:15 AM,79.5,51.1,37,29.71,10.0,ESE,17.3,25.3,N/A,,Scattered Clouds,120,2013-06-25 07:15:00
2:35 AM,77.7,53.1,42,29.69,10.0,SE,9.2,12.7,N/A,,Clear,140,2013-06-25 07:35:00
2:55 AM,72.5,57.6,59,29.72,10.0,Calm,Calm,-,N/A,Thunderstorm,Clear,0,2013-06-25 07:55:00
3:15 AM,71.1,58.8,65,29.73,10.0,SW,5.8,-,N/A,,Clear,230,2013-06-25 08:15:00
3:35 AM,70.7,59.2,67,29.72,10.0,SE,4.6,-,N/A,Rain-Thunderstorm,Rain,130,2013-06-25 08:35:00
3:55 AM,70.0,58.8,68,29.73,10.0,NW,12.7,-,0.02,Rain-Thunderstorm,Rain,320,2013-06-25 08:55:00
4:15 AM,70.2,58.3,66,29.74,10.0,NW,8.1,-,N/A,Rain-Thunderstorm,Light Thunderstorms and Rain,310,2013-06-25 09:15:00
4:35 AM,70.5,57.6,63,29.77,10.0,WNW,21.9,26.5,N/A,Rain-Thunderstorm,Light Thunderstorms and Rain,300,2013-06-25 09:35:00
4:55 AM,68.4,58.8,71,29.78,10.0,WNW,12.7,23.0,0.05,Rain-Thunderstorm,Light Thunderstorms and Rain,300,2013-06-25 09:55:00
5:15 AM,68.7,59.2,72,29.74,10.0,SSE,6.9,-,0.02,Rain-Thunderstorm,Rain,160,2013-06-25 10:15:00
5:35 AM,68.4,61.2,78,29.72,10.0,SSE,8.1,-,0.04,Rain-Thunderstorm,Light Thunderstorms and Rain,160,2013-06-25 10:35:00
5:55 AM,67.3,62.1,83,29.71,10.0,South,5.8,-,0.05,Rain-Thunderstorm,Light Thunderstorms and Rain,170,2013-06-25 10:55:00
6:15 AM,68.2,61.5,79,29.71,10.0,South,11.5,-,N/A,Rain-Thunderstorm,Light Thunderstorms and Rain,180,2013-06-25 11:15:00
6:35 AM,66.2,62.8,89,29.73,3.0,South,13.8,-,0.15,Rain,Heavy Rain,170,2013-06-25 11:35:00
6:55 AM,67.5,62.2,83,29.74,7.0,South,9.2,-,0.19,Rain,Heavy Rain,190,2013-06-25 11:55:00
7:15 AM,68.5,62.1,80,29.74,10.0,SSW,10.4,-,0.01,Rain,Light Rain,210,2013-06-25 12:15:00
7:35 AM,68.7,63.3,83,29.74,10.0,SSW,6.9,-,0.01,,Overcast,210,2013-06-25 12:35:00
7:55 AM,70.7,64.0,79,29.74,10.0,SSW,3.5,-,0.01,,Overcast,200,2013-06-25 12:55:00
8:15 AM,70.7,67.8,91,29.77,10.0,SSE,18.4,21.9,N/A,,Overcast,160,2013-06-25 13:15:00
8:35 AM,70.9,68.7,93,29.76,10.0,SSE,16.1,24.2,N/A,,Mostly Cloudy,150,2013-06-25 13:35:00
8:55 AM,72.7,68.9,88,29.76,10.0,SE,13.8,17.3,N/A,,Mostly Cloudy,140,2013-06-25 13:55:00
9:15 AM,74.5,69.3,84,29.77,10.0,SE,11.5,-,N/A,,Mostly Cloudy,140,2013-06-25 14:15:00
9:35 AM,74.3,65.5,74,29.78,10.0,SSE,8.1,-,N/A,,Mostly Cloudy,150,2013-06-25 14:35:00
9:55 AM,73.8,64.9,74,29.80,10.0,SSE,16.1,-,N/A,,Overcast,150,2013-06-25 14:55:00
10:15 AM,74.5,69.3,84,29.79,10.0,SE,16.1,20.7,N/A,,Overcast,140,2013-06-25 15:15:00
10:35 AM,77.2,70.9,81,29.76,10.0,SE,11.5,-,N/A,,Scattered Clouds,140,2013-06-25 15:35:00
10:55 AM,78.1,71.1,79,29.76,10.0,SSE,13.8,-,N/A,,Clear,160,2013-06-25 15:55:00
11:15 AM,78.8,70.7,76,29.74,10.0,SSE,15.0,-,N/A,,Clear,160,2013-06-25 16:15:00
11:35 AM,79.7,71.1,75,29.72,10.0,SSE,16.1,-,N/A,,Clear,160,2013-06-25 16:35:00
11:55 AM,81.3,71.4,72,29.72,10.0,SSE,15.0,19.6,N/A,,Clear,160,2013-06-25 16:55:00
12:15 PM,80.8,70.2,70,29.72,10.0,SSE,13.8,17.3,N/A,,Clear,160,2013-06-25 17:15:00
12:35 PM,82.4,67.6,61,29.72,10.0,South,19.6,23.0,N/A,,Clear,180,2013-06-25 17:35:00
12:55 PM,81.1,68.0,64,29.72,10.0,SSE,15.0,-,N/A,,Clear,160,2013-06-25 17:55:00
1:15 PM,81.3,68.4,65,29.73,10.0,SSE,18.4,-,N/A,,Clear,160,2013-06-25 18:15:00
1:35 PM,81.5,67.6,63,29.72,10.0,South,16.1,21.9,N/A,,Clear,170,2013-06-25 18:35:00
1:55 PM,82.4,69.8,66,29.71,10.0,South,15.0,20.7,N/A,,Clear,170,2013-06-25 18:55:00
2:15 PM,82.9,69.6,64,29.72,10.0,South,15.0,19.6,N/A,,Clear,180,2013-06-25 19:15:00
2:35 PM,82.2,68.9,64,29.71,10.0,South,12.7,19.6,N/A,,Clear,170,2013-06-25 19:35:00
2:55 PM,81.5,69.4,67,29.71,10.0,SSE,13.8,-,N/A,,Scattered Clouds,160,2013-06-25 19:55:00
3:15 PM,82.2,69.4,65,29.71,10.0,SSE,13.8,-,N/A,,Scattered Clouds,160,2013-06-25 20:15:00
3:35 PM,83.1,70.5,66,29.71,10.0,South,13.8,-,N/A,,Mostly Cloudy,180,2013-06-25 20:35:00
3:55 PM,82.8,71.1,68,29.71,10.0,South,11.5,-,N/A,,Overcast,170,2013-06-25 20:55:00
4:15 PM,84.6,71.8,65,29.70,10.0,South,11.5,-,N/A,,Mostly Cloudy,170,2013-06-25 21:15:00
4:24 PM,84.2,69.8,62,29.70,10.0,SSE,11.5,-,N/A,,Mostly Cloudy,160,2013-06-25 21:24:00
4:35 PM,84.7,70.5,62,29.70,10.0,South,11.5,-,N/A,,Mostly Cloudy,180,2013-06-25 21:35:00
4:45 PM,84.2,71.6,66,29.70,10.0,South,10.4,-,N/A,,Scattered Clouds,180,2013-06-25 21:45:00
4:55 PM,84.4,70.7,63,29.70,10.0,South,8.1,-,N/A,,Scattered Clouds,170,2013-06-25 21:55:00
5:15 PM,83.3,71.1,66,29.70,10.0,South,6.9,-,N/A,,Mostly Cloudy,170,2013-06-25 22:15:00
5:35 PM,83.1,71.6,68,29.70,10.0,South,5.8,-,N/A,,Overcast,180,2013-06-25 22:35:00
5:55 PM,83.7,72.0,68,29.70,10.0,SSE,9.2,-,N/A,,Overcast,150,2013-06-25 22:55:00
6:15 PM,84.2,72.3,67,29.69,10.0,South,8.1,-,N/A,,Scattered Clouds,170,2013-06-25 23:15:00
6:35 PM,83.8,72.0,67,29.69,10.0,SSE,8.1,-,N/A,,Scattered Clouds,160,2013-06-25 23:35:00
6:55 PM,83.3,72.5,70,29.69,10.0,South,8.1,-,N/A,,Scattered Clouds,170,2013-06-25 23:55:00
7:15 PM,82.9,73.2,72,29.69,10.0,SSE,8.1,-,N/A,,Scattered Clouds,160,2013-06-26 00:15:00
7:35 PM,82.0,73.4,75,29.69,10.0,SSE,6.9,-,N/A,,Scattered Clouds,150,2013-06-26 00:35:00
7:55 PM,81.9,73.2,75,29.70,10.0,SSE,6.9,-,N/A,,Clear,160,2013-06-26 00:55:00
8:15 PM,80.4,73.6,80,29.70,10.0,SSE,4.6,-,N/A,,Clear,160,2013-06-26 01:15:00
8:35 PM,79.3,74.1,84,29.70,10.0,SSE,4.6,-,N/A,,Mostly Cloudy,160,2013-06-26 01:35:00
8:55 PM,78.8,74.3,86,29.70,10.0,SSE,4.6,-,N/A,,Mostly Cloudy,150,2013-06-26 01:55:00
9:15 PM,77.9,74.3,89,29.71,10.0,SSE,4.6,-,N/A,,Overcast,160,2013-06-26 02:15:00
9:35 PM,77.2,74.3,91,29.70,10.0,SSE,4.6,-,N/A,,Overcast,150,2013-06-26 02:35:00
9:55 PM,76.8,73.8,90,29.70,10.0,SSE,6.9,-,N/A,,Scattered Clouds,150,2013-06-26 02:55:00
10:15 PM,77.0,73.4,89,29.71,10.0,SSE,4.6,-,N/A,,Clear,150,2013-06-26 03:15:00
10:35 PM,76.1,73.4,91,29.71,10.0,Calm,Calm,-,N/A,,Clear,0,2013-06-26 03:35:00
10:55 PM,75.7,73.4,92,29.71,10.0,SSE,4.6,-,N/A,,Clear,150,2013-06-26 03:55:00
11:15 PM,74.5,73.0,95,29.71,10.0,Calm,Calm,-,N/A,,Clear,0,2013-06-26 04:15:00
11:35 PM,72.9,72.7,99,29.71,10.0,Calm,Calm,-,N/A,,Clear,0,2013-06-26 04:35:00
11:55 PM,73.4,72.9,98,29.71,10.0,Calm,Calm,-,N/A,,Clear,0,2013-06-26 04:55:00